Temperature
4 4 4 4 4 4 4 4 4 3 3 4 4 4 4 4 4 4 4 5 5 5 5 5 5 5 5 5 5 5 5 5 5 5 4 4 4 4
3 3 3 4 3 3 3 3 3 3 3 3 3 4 4 4 4 4 4 4 4 4 4 4 4 4 4 4 4 4 4 4 4 4 4 4 4 4
3 3 3 3 3 3 3 3 3 3 3 3 3 3 3 3 3 3 3 4 4 4 4 4 4 4 4 3 3 4 4 4 4 4 4 4 3 3
2 2 2 2 2 2 2 2 2 2 2 2 2 2 3 3 3 3 3 3 3 3 3 3 3 3 3 3 3 3 3 3 3 3 3 3 3 3
2 2 2 2 2 2 2 2 2 2 2 2 2 2 2 2 2 2 2 2 2 2 2 3 3 3 2 2 2 2 2 3 3 3 3 3 3 3
1 1 1 1 1 1 1 1 1 1 1 1 1 1 1 1 1 1 2 2 2 2 2 2 2 2 2 2 2 2 2 2 2 2 2 2 2 2
1 1 1 1 1 1 1 1 1 1 1 1 1 0 1 1 1 1 1 1 1 1 1 1 1 1 1 1 1 1 1 1 1 1 1 1 1 1
0 1 1 1 1 1 1 1 0 0 0 0 0 0 0 0 0 0 0 0 0 0 0 1 1 1 1 1 1 1 1 1 1 1 1 1 1 1
-0 0 0 0 0 0 0 0 0 0 0 -0 -0 0 -0 -0 -0 -0 -0 -0 -0 -0 -0 -0 0 0 0 0 0 0 0 0 0 0 0 0 0 0
-0 -0 -0 -0 -0 -0 -0 -0 -0 -0 -0 -0 -0 -0 -1 -1 -1 -1 -1 -1 -1 -1 -1 -1 -1 -0 -0 -0 -0 -0 -0 -0 -0 -0 -0 -0 -0 -0
-1 -1 -1 -1 -1 -1 -1 -1 -1 -1 -1 -1 -1 -1 -1 -1 -1 -2 -2 -2 -2 -2 -2 -2 -2 -1 -1 -1 -1 -1 -1 -1 -1 -1 -1 -1 -1 -1
-2 -2 -2 -2 -1 -1 -1 -1 -1 -1 -1 -1 -1 -1 -1 -2 -2 -2 -2 -2 -2 -2 -2 -2 -2 -2 -2 -2 -1 -1 -1 -1 -1 -1 -1 -1 -1 -1
-2 -2 -2 -2 -2 -2 -2 -2 -2 -2 -2 -2 -2 -2 -2 -2 -2 -2 -2 -2 -3 -3 -3 -3 -3 -3 -3 -3 -2 -2 -2 -2 -2 -1 -2 -1 -1 -2
-3 -3 -3 -2 -2 -2 -2 -2 -2 -2 -2 -2 -3 -3 -2 -3 -2 -3 -3 -3 -3 -3 -3 -3 -4 -4 -4 -3 -3 -3 -2 -2 -2 -2 -2 -2 -2 -2
-3 -3 -3 -3 -3 -3 -3 -3 -3 -3 -3 -3 -3 -3 -3 -3 -3 -3 -3 -3 -3 -4 -4 -4 -4 -4 -4 -4 -4 -3 -3 -3 -3 -3 -2 -2 -2 -2
-4 -4 -3 -3 -3 -3 -3 -3 -3 -3 -4 -4 -4 -3 -3 -4 -4 -4 -4 -4 -4 -4 -4 -4 -4 -4 -5 -4 -4 -4 -4 -4 -3 -3 -3 -3 -3 -3
-4 -4 -4 -4 -4 -4 -4 -4 -4 -4 -4 -4 -4 -4 -4 -4 -4 -4 -5 -5 -5 -5 -5 -5 -5 -5 -5 -5 -5 -4 -4 -4 -4 -4 -3 -3 -3 -3
-5 -5 -5 -5 -5 -5 -5 -5 -4 -4 -5 -5 -5 -5 -5 -5 -5 -5 -5 -5 -5 -5 -5 -5 -5 -5 -5 -5 -5 -5 -5 -5 -4 -4 -4 -4 -4 -4
-6 -5 -5 -5 -5 -5 -5 -5 -5 -5 -5 -5 -5 -5 -5 -6 -6 -6 -6 -6 -6 -6 -6 -6 -6 -6 -6 -6 -6 -6 -6 -5 -5 -5 -5 -5 -5 -4
-6 -6 -6 -6 -6 -6 -6 -6 -6 -6 -6 -6 -6 -6 -6 -6 -6 -6 -6 -6 -6 -6 -6 -6 -6 -6 -6 -6 -6 -6 -6 -6 -6 -6 -5 -5 -5 -5
-7 -7 -7 -7 -7 -7 -7 -7 -7 -6 -6 -7 -7 -7 -7 -7 -7 -7 -7 -7 -7 -7 -7 -7 -7 -7 -7 -7 -7 -6 -6 -6 -6 -6 -6 -6 -6 -5
-8 -8 -8 -8 -8 -7 -7 -7 -7 -7 -7 -7 -7 -7 -7 -7 -7 -7 -8 -7 -7 -7 -7 -7 -7 -7 -7 -7 -7 -7 -7 -7 -7 -7 -7 -7 -7 -7
-9 -9 -8 -8 -8 -8 -8 -8 -8 -8 -8 -8 -8 -8 -8 -8 -8 -8 -8 -8 -8 -8 -8 -8 -8 -8 -8 -8 -8 -8 -8 -7 -7 -7 -7 -7 -7 -7
Wind_Speed
4 4 3 2 2 1 2 2 3 3 4 2 2 1 3 4 5 5 5 6 6 6 6 6 5 5 4 4 3 3 4 4 5 5 5 5 6 6
3 3 3 2 2 2 2 2 2 2 3 2 2 2 2 3 5 5 6 6 7 7 7 6 5 5 6 5 5 4 4 4 5 5 6 6 6 7
4 4 4 3 3 3 2 2 2 2 3 3 2 2 2 2 3 4 4 4 5 6 5 5 5 6 7 6 6 5 5 5 5 6 6 7 7 7
5 5 5 4 4 3 3 3 3 2 2 3 3 2 2 2 2 2 2 3 3 5 6 6 6 6 7 7 6 6 6 6 6 6 6 7 7 7
6 6 6 5 5 3 4 3 3 2 2 3 3 2 2 2 1 2 2 2 3 4 5 6 7 7 7 7 7 7 7 7 6 6 6 6 7 7
6 6 6 6 6 6 5 4 3 3 2 2 3 3 2 2 1 2 2 2 2 3 4 5 5 6 7 7 8 7 7 7 7 6 6 6 7 8
5 5 6 6 7 6 5 5 5 3 3 3 3 3 2 2 3 2 3 2 3 2 3 3 2 3 4 6 7 7 7 7 7 7 7 7 7 8
5 4 5 5 6 6 6 6 6 5 5 4 4 4 4 3 2 2 2 2 3 1 2 3 2 3 4 4 5 6 6 6 6 7 7 8 8 9
5 5 4 5 5 5 5 6 6 7 7 5 5 6 5 5 4 3 3 3 4 2 2 4 3 4 4 5 6 6 7 7 7 7 7 7 8 9
4 5 5 5 5 5 5 5 5 5 6 5 6 6 5 5 5 5 4 3 3 2 2 4 3 3 4 4 6 7 7 8 7 7 7 7 8 8
3 4 4 4 6 6 5 5 4 3 4 5 6 6 7 7 6 3 3 3 4 3 2 2 2 3 3 4 5 7 7 7 7 7 7 7 7 7
3 4 5 5 6 5 5 5 5 4 3 2 2 3 3 5 6 5 4 4 3 3 2 2 2 2 3 3 3 4 4 6 7 7 7 7 7 5
3 3 3 5 6 6 5 5 6 4 4 3 2 2 1 2 2 3 3 4 4 4 2 2 2 2 2 3 3 3 3 4 5 6 7 8 7 5
3 3 3 5 5 5 4 4 4 3 3 3 2 3 2 2 2 2 2 2 3 4 4 3 2 3 3 4 4 3 3 4 3 4 5 6 6 6
3 4 4 4 3 3 3 2 2 2 3 3 3 3 2 2 2 1 1 1 0 1 3 4 3 3 3 4 4 3 3 3 3 4 5 5 5 5
2 3 3 3 2 2 2 2 2 2 3 3 3 2 1 1 2 2 2 2 1 2 2 2 3 3 3 4 4 4 3 3 3 4 4 5 5 5
2 1 0 1 1 1 1 1 1 2 2 2 2 2 2 2 2 2 2 2 2 3 3 2 2 2 4 3 4 4 4 4 4 3 3 4 5 6
1 1 1 1 2 2 2 1 1 2 2 2 2 2 3 3 2 2 2 2 3 3 3 2 1 1 1 3 5 4 4 4 3 3 3 4 5 5
1 0 1 1 1 1 2 2 2 2 1 2 2 2 2 2 2 2 2 2 3 3 2 2 1 1 2 4 3 4 4 3 3 3 3 4 5 6
1 1 1 1 1 1 1 1 1 1 1 1 2 2 2 3 3 3 3 3 3 3 2 2 2 3 4 4 3 3 4 4 3 4 4 4 4 7
1 1 1 1 1 1 1 1 1 1 2 2 2 2 2 2 3 3 3 4 3 3 3 3 3 3 2 1 2 3 4 6 6 4 4 3 4 3
2 1 1 1 1 1 1 1 1 1 2 2 2 2 2 2 3 3 3 3 3 3 3 3 2 1 1 3 4 5 5 5 7 8 7 6 3 3
2 2 1 1 1 1 1 2 2 2 2 3 3 2 2 2 2 3 3 3 3 3 3 2 2 2 3 3 4 4 5 5 4 4 5 7 8 10
Wind_Direction
203 198 195 189 183 180 177 181 183 226 246 243 252 293 272 261 257 247 249 259 264 266 267 266 263 249 246 254 267 277 292 299 309 302 299 298 298 292
200 192 200 190 181 183 187 196 199 207 242 248 260 287 275 272 274 262 257 263 264 263 264 262 261 255 245 245 251 258 265 278 290 296 292 292 296 301
204 199 209 193 189 192 192 192 203 201 240 273 279 285 269 273 280 271 259 255 254 254 258 263 264 260 247 240 243 249 254 261 275 282 288 285 288 295
210 203 210 205 199 199 199 202 208 210 216 250 274 273 268 260 256 266 281 266 260 258 261 263 267 269 259 242 244 250 254 257 267 271 277 284 283 287
211 207 210 202 208 210 207 209 214 226 221 226 258 272 269 257 263 289 293 289 283 276 268 266 265 266 269 259 252 250 250 254 259 265 270 281 284 284
217 211 209 209 210 208 210 209 204 203 206 214 242 254 260 247 224 248 277 281 293 297 280 275 271 266 265 262 252 248 246 249 252 258 266 272 282 282
222 215 215 217 221 218 217 206 198 202 207 220 232 250 247 232 236 247 260 276 289 294 292 284 287 282 279 268 258 251 247 247 250 254 260 266 273 279
226 225 219 213 221 227 228 221 212 208 210 220 236 237 242 239 242 239 244 263 275 276 270 281 274 278 280 266 267 260 252 249 252 257 262 267 271 276
224 223 229 221 223 212 223 226 228 231 226 219 223 232 229 224 221 233 236 243 259 264 274 275 277 275 282 270 273 271 261 254 250 257 265 272 274 274
231 223 224 219 220 214 212 218 224 227 227 223 223 228 226 211 213 226 235 255 278 274 251 262 273 273 285 278 271 272 267 264 263 267 268 271 274 276
245 231 225 222 234 230 213 210 219 229 237 232 232 232 231 228 215 202 208 228 260 257 240 247 273 283 277 272 270 267 266 275 273 270 269 271 275 276
246 230 232 239 240 234 214 202 213 225 212 214 232 241 230 218 221 216 210 222 246 254 224 221 261 281 285 268 266 267 274 283 286 281 278 274 274 278
240 235 230 244 244 244 237 219 224 217 198 197 206 212 212 205 212 212 213 219 228 242 217 206 243 249 253 280 283 270 274 289 291 290 286 280 275 276
238 236 237 245 250 250 248 235 222 203 186 195 210 220 220 226 223 214 210 210 221 229 214 207 232 237 250 270 273 280 282 280 285 296 304 292 280 275
251 252 254 248 242 231 241 224 197 189 194 208 220 230 227 215 204 199 186 155 134 228 214 224 227 232 235 245 260 273 287 283 286 298 299 294 284 282
280 258 253 238 235 235 221 203 193 202 207 211 212 214 199 205 223 221 227 227 254 281 276 239 228 225 240 249 249 261 262 264 281 294 291 290 288 280
284 274 223 202 218 213 210 211 202 195 213 208 201 202 211 220 232 224 223 233 240 253 273 297 311 259 239 239 252 258 265 269 268 284 288 284 278 278
292 214 234 232 228 227 221 235 241 223 220 213 205 204 207 214 225 233 233 220 231 247 256 262 269 296 282 261 243 249 258 261 269 281 276 274 278 280
318 252 253 242 238 238 231 229 247 242 219 207 210 209 207 212 215 219 222 226 231 242 252 243 235 219 255 273 272 235 240 264 272 272 266 262 271 281
328 282 267 263 246 240 244 249 248 241 219 211 207 211 213 218 222 223 223 226 231 243 255 249 232 225 230 245 260 275 260 255 259 269 275 282 279 288
313 303 294 283 278 261 253 251 242 240 232 223 222 224 221 218 228 230 231 235 239 240 244 255 256 252 238 240 270 276 275 270 268 264 268 289 296 296
309 302 304 295 277 264 257 245 241 247 241 231 231 231 230 225 229 235 232 232 236 239 251 261 269 265 234 241 261 274 285 296 297 286 269 252 241 250
299 296 296 295 286 277 259 251 243 245 247 240 237 234 229 234 237 236 236 234 233 238 247 258 269 261 256 251 259 271 278 287 295 304 295 288 280 277
Height
1512 1515 1516 1517 1519 1521 1522 1523 1524 1523 1523 1525 1526 1527 1528 1529 1529 1529 1530 1531 1531 1531 1532 1532 1532 1533 1533 1533 1533 1533 1533 1533 1533 1533 1533 1533 1533 1533
1508 1510 1512 1513 1515 1516 1518 1520 1520 1521 1520 1520 1521 1522 1524 1525 1525 1525 1526 1526 1526 1527 1527 1527 1527 1528 1528 1528 1528 1528 1528 1528 1528 1528 1528 1528 1528 1528
1503 1505 1507 1509 1510 1512 1514 1515 1516 1517 1516 1516 1517 1518 1519 1520 1521 1521 1521 1521 1521 1522 1522 1523 1523 1523 1523 1523 1524 1524 1524 1524 1524 1524 1523 1523 1524 1524
1498 1500 1502 1504 1506 1507 1509 1510 1512 1512 1513 1512 1512 1514 1514 1515 1516 1516 1517 1517 1517 1517 1517 1518 1518 1518 1518 1519 1519 1519 1519 1519 1519 1519 1519 1519 1519 1518
1494 1495 1497 1499 1500 1502 1504 1506 1507 1508 1508 1508 1508 1509 1509 1510 1511 1512 1512 1512 1512 1512 1513 1513 1513 1513 1513 1513 1514 1514 1514 1514 1514 1514 1514 1514 1513 1513
1489 1491 1493 1494 1496 1498 1499 1501 1502 1503 1504 1504 1504 1504 1505 1506 1507 1507 1507 1508 1508 1508 1508 1508 1508 1508 1508 1508 1508 1508 1508 1508 1508 1508 1508 1508 1508 1508
1484 1486 1488 1489 1491 1493 1495 1496 1497 1498 1499 1500 1500 1500 1500 1501 1502 1502 1503 1503 1503 1503 1503 1503 1503 1503 1503 1503 1503 1503 1503 1503 1503 1503 1503 1503 1503 1503
1479 1481 1483 1484 1486 1488 1490 1491 1493 1494 1495 1495 1495 1495 1496 1497 1497 1498 1498 1498 1498 1499 1499 1498 1498 1497 1497 1497 1497 1497 1497 1497 1497 1498 1498 1498 1498 1497
1474 1476 1477 1479 1481 1483 1484 1486 1487 1489 1490 1491 1491 1491 1492 1492 1493 1493 1493 1493 1493 1494 1494 1492 1492 1492 1492 1492 1492 1492 1492 1492 1492 1492 1492 1492 1492 1491
1470 1471 1472 1474 1476 1477 1479 1480 1482 1483 1485 1486 1487 1487 1488 1488 1489 1489 1489 1489 1488 1489 1489 1487 1486 1487 1486 1487 1487 1487 1487 1487 1487 1486 1486 1486 1486 1486
1465 1467 1468 1469 1470 1472 1474 1475 1476 1478 1479 1480 1481 1482 1483 1484 1484 1485 1484 1484 1483 1483 1484 1483 1482 1481 1481 1481 1481 1481 1481 1481 1481 1481 1481 1481 1480 1480
1461 1462 1464 1465 1466 1467 1469 1470 1471 1472 1474 1475 1476 1477 1477 1478 1479 1480 1479 1480 1479 1478 1478 1479 1478 1478 1476 1475 1476 1476 1476 1475 1475 1475 1475 1475 1475 1474
1456 1457 1459 1460 1462 1463 1464 1465 1466 1468 1469 1470 1470 1471 1472 1473 1473 1474 1474 1475 1474 1473 1474 1474 1473 1473 1473 1470 1470 1470 1470 1470 1469 1469 1470 1469 1469 1468
1452 1453 1454 1456 1457 1458 1459 1460 1462 1463 1464 1465 1465 1466 1467 1467 1468 1468 1469 1469 1469 1469 1469 1469 1469 1468 1468 1466 1465 1464 1464 1464 1464 1464 1463 1463 1463 1463
1449 1450 1451 1452 1453 1454 1455 1456 1457 1458 1459 1460 1460 1461 1462 1462 1463 1463 1464 1464 1464 1464 1464 1464 1464 1463 1463 1462 1460 1459 1458 1458 1458 1458 1458 1457 1457 1457
1445 1445 1447 1448 1448 1449 1451 1452 1453 1454 1454 1455 1455 1456 1457 1457 1458 1458 1458 1459 1459 1458 1458 1458 1458 1458 1457 1457 1456 1455 1454 1453 1453 1453 1452 1452 1452 1451
1440 1441 1442 1443 1444 1445 1446 1447 1448 1449 1450 1450 1451 1451 1452 1452 1453 1453 1454 1454 1454 1453 1453 1453 1453 1453 1452 1452 1451 1450 1449 1449 1449 1448 1447 1446 1446 1446
1437 1437 1438 1438 1439 1440 1441 1442 1443 1444 1445 1446 1446 1446 1447 1447 1448 1448 1449 1449 1449 1449 1448 1448 1448 1448 1448 1447 1447 1445 1445 1444 1444 1443 1442 1441 1440 1441
1433 1434 1434 1435 1435 1436 1437 1437 1438 1439 1440 1441 1441 1442 1442 1443 1443 1443 1444 1444 1444 1444 1444 1444 1444 1443 1443 1442 1441 1442 1441 1439 1439 1438 1438 1437 1435 1435
1430 1430 1431 1431 1431 1432 1432 1433 1434 1435 1436 1436 1437 1437 1438 1438 1438 1439 1439 1440 1440 1440 1440 1440 1439 1439 1439 1438 1437 1437 1437 1435 1434 1433 1432 1431 1431 1431
1427 1427 1427 1428 1428 1428 1429 1429 1430 1430 1431 1431 1432 1433 1433 1434 1434 1434 1435 1435 1435 1435 1435 1435 1435 1436 1435 1435 1433 1432 1433 1432 1431 1429 1428 1426 1425 1424
1424 1424 1424 1424 1425 1425 1425 1426 1426 1426 1427 1427 1427 1428 1429 1429 1429 1430 1430 1431 1431 1431 1431 1431 1431 1431 1431 1430 1428 1428 1428 1428 1427 1426 1425 1424 1422 1420
1421 1421 1421 1421 1421 1421 1422 1422 1422 1422 1423 1423 1423 1424 1424 1424 1425 1426 1426 1426 1426 1426 1426 1426 1426 1426 1426 1426 1425 1424 1423 1422 1422 1421 1421 1420 1419 1418